カタログに戻る

SL-12 R/B(2)

運用中GEO
NORAD 12851·ROCKET BODY·🇷🇺 Russia

打ち上げ Jun 26, 1981 から Baikonur Cosmodrome

Loading…

TLE

最新Source: Space-Track

元期: Sep 14, 2026, 22:03 UTC

1 12851U 81061F   26257.91940073 -.00000271  00000-0  00000-0 0  9999
2 12851   5.7906 289.9809 0002124  48.7478 284.6562  1.01010131 48629

AllMySatでSL-12 R/B(2)をリアルタイム追跡

Download on the App Store